CZ-6A DEB, 55884

Orbit data source: Space-Track

CZ-6A DEB, 55884 is space debris in SSO originally from a launch on Fri, 11 Nov 2022 UTC launched from the Taiyaun Space Center, China (TSC). Debris objects in space refer to the collection of defunct objects orbiting the Earth. Examples of debris include non-operational satellites, rocket bodies, and fragments generated from explosions, collisions, or faulty payload assembly.

Loading next visibility...
Identifier
55884, 2022-151AAG
Orbit
SSO
Country
Flag of CNCN / PRC
Related business
Manufacturer
SAST
Mission
Spacecraft
Bus & Motor
Unknown
Mass
Unknown
Launch date (UTC)
2022-11-11 (4 years ago)
Launch vehicle
Unknown
Launch site
Taiyaun Space Center, China (TSC)
Object type
Payload
Rocket body
Debris
Shape & HBR
Unknown shape, 0.1 m
Radar Cross Section
Medium (>0.1 m² and <1 m²)

Expand to show TLE details & history
Last TLE update: 2 days ago

TLE from 2 days ago
0 CZ-6A DEB
1 55884U 22151AAG 26262.98706630  .00001169  00000-0  60998-3 0  9990
2 55884  98.8428 265.8998 0051331  64.0893 296.5559 14.15775948184141
Epoch: 2026-09-19T23:41Z
TLE epoch observation values (Epoch: 2026-09-19T23:41:22.528Z)
Latitude
-0.00001°
Longitude
-88.33179°
Altitude
826.164 km
Speed
7.448 km/s
True Right ascension
17h 43m 35s
True Declination
0° 00' 00"
Sunlit
Object was in daylight at epoch
Visualization orbit readout
Latitude
Unknown
Longitude
Unknown
Altitude
Unknown
Speed
Unknown
Apparent Right ascension
Unknown
Apparent Declination
Unknown
Sunlit
N/A
Visualization observer readout
Local Sidereal Time
16:01:32
Azimuth
Unknown
Elevation
Unknown
Doppler factor
Unknown
Orbital elements
Apogee altitude
873.879 km
Perigee altitude
799.809 km
Semi-major axis
7,214.981 km
Eccentricity
0.00513
Inclination
98.8428°
RAAN
265.8998°
Arg. of periapsis
64.0893°
True anomaly
296.02824°
Mean anomaly
296.5559°
Eccentric anomaly
296.29222°
Mean motion
3.54153 °/min
Orbital period
101.65 mins
BSTAR
0.00060998
Loading maneuver chart data...
Computing Atmospheric mass density...

Documentation

Showing up to 5 results
|